| time (UTC) | temp C | wind direction | speed KPH | gust KPH | rain 1hr cm | rain 24hr cm | rain mn cm | humidity % | barometer mb |
| 20260507084516 | 3 | 271 | 0.0 | 0.0 | 0.00 | 1.04 | 0.00 | 94 | 1010.3 |
| 20260507083018 | 3 | 271 | 1.6 | 4.8 | 0.00 | 1.04 | 0.00 | 95 | 1010.0 |
| 20260507081505 | 2 | 271 | 0.0 | 0.0 | 0.00 | 1.04 | 0.00 | 94 | 1010.5 |
| 20260507080004 | 2 | 271 | 0.0 | 1.6 | 0.00 | 1.04 | 0.00 | 94 | 1010.4 |
| 20260507074501 | 2 | 271 | 0.0 | 1.6 | 0.00 | 1.27 | 0.00 | 93 | 1010.2 |
| 20260507073108 | 3 | 271 | 1.6 | 3.2 | 0.00 | 1.27 | 0.00 | 93 | 1010.2 |
| 20260507071557 | 3 | 271 | 0.0 | 1.6 | 0.00 | 1.27 | 0.00 | 93 | 1010.4 |
| 20260507070104 | 3 | 271 | 0.0 | 0.0 | 0.00 | 1.27 | 0.00 | 92 | 1010.5 |
| 20260507064550 | 4 | 271 | 0.0 | 0.0 | 0.00 | 1.52 | 0.00 | 92 | 1010.7 |
| 20260507063053 | 4 | 271 | 0.0 | 0.0 | 0.00 | 1.52 | 0.00 | 92 | 1010.6 |
| 20260507061545 | 5 | 271 | 0.0 | 0.0 | 0.00 | 1.52 | 0.00 | 91 | 1010.6 |
| 20260507060014 | 5 | 271 | 0.0 | 3.2 | 0.00 | 1.52 | 0.00 | 91 | 1010.5 |
| 20260507054512 | 5 | 271 | 0.0 | 3.2 | 0.00 | 1.80 | 0.00 | 91 | 1010.6 |
| 20260507053009 | 5 | 271 | 1.6 | 6.4 | 0.00 | 1.80 | 0.00 | 91 | 1010.8 |
| 20260507051506 | 5 | 248 | 4.8 | 6.4 | 0.00 | 1.80 | 0.00 | 93 | 1010.9 |
| 20260507050013 | 5 | 266 | 0.0 | 6.4 | 0.00 | 1.80 | 0.00 | 93 | 1011.0 |
| 20260507044504 | 5 | 285 | 3.2 | 8.0 | 0.00 | 2.01 | 0.00 | 93 | 1011.2 |
| 20260507043100 | 5 | 247 | 1.6 | 4.8 | 0.00 | 2.01 | 0.00 | 93 | 1011.1 |
| 20260507041601 | 5 | 247 | 1.6 | 3.2 | 0.00 | 2.01 | 0.00 | 93 | 1010.9 |
| 20260507040103 | 5 | 248 | 3.2 | 6.4 | 0.00 | 2.01 | 0.00 | 93 | 1010.8 |
| 20260507034559 | 5 | 265 | 3.2 | 6.4 | 0.00 | 2.21 | 2.01 | 93 | 1010.7 |
| 20260507033054 | 5 | 263 | 4.8 | 9.7 | 0.00 | 2.21 | 2.01 | 94 | 1010.7 |
| 20260507031555 | 5 | 261 | 1.6 | 6.4 | 0.00 | 2.21 | 2.01 | 94 | 1010.8 |
| 20260507030052 | 5 | 278 | 4.8 | 11.3 | 0.00 | 2.21 | 2.01 | 94 | 1010.7 |
| 20260507024552 | 5 | 257 | 3.2 | 9.7 | 0.00 | 2.24 | 2.01 | 94 | 1010.7 |
| 20260507023049 | 6 | 285 | 4.8 | 8.0 | 0.00 | 2.24 | 2.01 | 94 | 1010.5 |
| 20260507021557 | 5 | 250 | 3.2 | 8.0 | 0.00 | 2.24 | 2.01 | 94 | 1010.7 |
| 20260507020047 | 6 | 264 | 3.2 | 6.4 | 0.00 | 2.24 | 2.01 | 94 | 1010.8 |
| 20260507014546 | 5 | 257 | 3.2 | 6.4 | 0.00 | 2.31 | 2.01 | 94 | 1010.7 |
| 20260507013043 | 5 | 251 | 3.2 | 6.4 | 0.00 | 2.31 | 2.01 | 94 | 1010.4 |
| 20260507011545 | 5 | 249 | 3.2 | 11.3 | 0.00 | 2.31 | 2.01 | 94 | 1010.5 |
| 20260507010044 | 5 | 240 | 6.4 | 12.9 | 0.00 | 2.31 | 2.01 | 94 | 1010.5 |
| 20260507004539 | 5 | 279 | 3.2 | 11.3 | 0.00 | 2.46 | 2.01 | 94 | 1010.2 |
| 20260507003035 | 5 | 280 | 9.7 | 16.1 | 0.00 | 2.46 | 2.01 | 94 | 1010.3 |
| 20260507001534 | 5 | 298 | 6.4 | 16.1 | 0.00 | 2.46 | 2.01 | 93 | 1010.0 |
| 20260507000034 | 5 | 314 | 8.0 | 14.5 | 0.05 | 2.46 | 2.01 | 93 | 1009.9 |
| 20260506234527 | 5 | 321 | 8.0 | 14.5 | 0.10 | 2.62 | 2.01 | 93 | 1009.7 |
| 20260506233025 | 6 | 309 | 4.8 | 16.1 | 0.20 | 2.62 | 2.01 | 93 | 1009.3 |
| 20260506231526 | 6 | 341 | 6.4 | 17.7 | 0.25 | 2.62 | 2.01 | 92 | 1009.4 |
| 20260506230019 | 6 | 355 | 11.3 | 22.5 | 0.23 | 2.57 | 1.96 | 91 | 1009.1 |
| 20260506224516 | 7 | 327 | 11.3 | 33.8 | 0.23 | 2.62 | 1.91 | 89 | 1008.6 |
| 20260506223017 | 8 | 134 | 0.0 | 4.8 | 0.13 | 2.51 | 1.80 | 89 | 1008.1 |
| 20260506221513 | 8 | 134 | 1.6 | 6.4 | 0.08 | 2.46 | 1.75 | 88 | 1007.9 |
| 20260506220019 | 8 | 134 | 1.6 | 4.8 | 0.05 | 2.44 | 1.73 | 86 | 1007.8 |
| 20260506214510 | 9 | 134 | 1.6 | 6.4 | 0.00 | 2.49 | 1.68 | 84 | 1007.7 |
| 20260506213008 | 9 | 134 | 1.6 | 6.4 | 0.00 | 2.49 | 1.68 | 83 | 1007.4 |
| 20260506211508 | 9 | 134 | 4.8 | 8.0 | 0.00 | 2.49 | 1.68 | 83 | 1007.4 |
| 20260506210006 | 10 | 201 | 1.6 | 8.0 | 0.00 | 2.49 | 1.68 | 82 | 1007.5 |
| 20260506204505 | 9 | 204 | 0.0 | 3.2 | 0.00 | 2.49 | 1.68 | 82 | 1007.6 |
| 20260506203013 | 9 | 204 | 1.6 | 4.8 | 0.00 | 2.49 | 1.68 | 83 | 1007.6 |
| 20260506201507 | 9 | 204 | 3.2 | 4.8 | 0.00 | 2.49 | 1.68 | 81 | 1007.7 |
| 20260506200002 | 10 | 204 | 1.6 | 4.8 | 0.00 | 2.49 | 1.68 | 82 | 1007.6 |
| 20260506194619 | 9 | 200 | 3.2 | 9.7 | 0.00 | 2.49 | 1.68 | 84 | 1007.7 |
| 20260506193055 | 9 | 151 | 3.2 | 4.8 | 0.00 | 2.49 | 1.68 | 86 | 1007.5 |
| 20260506191552 | 8 | 156 | 3.2 | 8.0 | 0.00 | 2.49 | 1.68 | 86 | 1007.6 |
| 20260506190052 | 8 | 105 | 0.0 | 6.4 | 0.00 | 2.49 | 1.68 | 87 | 1007.7 |
| 20260506184547 | 8 | 36 | 1.6 | 4.8 | 0.00 | 2.49 | 1.68 | 89 | 1007.9 |
| 20260506183100 | 8 | 79 | 3.2 | 8.0 | 0.00 | 2.49 | 1.68 | 89 | 1007.9 |
| 20260506181553 | 7 | 5 | 1.6 | 6.4 | 0.00 | 2.49 | 1.68 | 89 | 1007.8 |
| 20260506180046 | 7 | 15 | 1.6 | 6.4 | 0.00 | 2.49 | 1.68 | 89 | 1008.0 |
| 20260506174542 | 8 | 79 | 3.2 | 6.4 | 0.00 | 2.49 | 1.68 | 90 | 1008.0 |
| 20260506173049 | 7 | 21 | 3.2 | 8.0 | 0.00 | 2.49 | 1.68 | 90 | 1007.9 |
| 20260506171544 | 8 | 342 | 3.2 | 6.4 | 0.00 | 2.49 | 1.68 | 92 | 1007.6 |
| 20260506170044 | 7 | 106 | 1.6 | 9.7 | 0.00 | 2.49 | 1.68 | 93 | 1007.3 |
| 20260506164545 | 7 | 10 | 1.6 | 6.4 | 0.00 | 2.49 | 1.68 | 94 | 1007.5 |
| 20260506163035 | 7 | 97 | 4.8 | 8.0 | 0.00 | 2.49 | 1.68 | 94 | 1007.3 |
| 20260506161539 | 7 | 10 | 3.2 | 8.0 | 0.00 | 2.49 | 1.68 | 95 | 1007.5 |
| 20260506160042 | 7 | 97 | 3.2 | 11.3 | 0.03 | 2.49 | 1.68 | 95 | 1007.3 |
| 20260506154531 | 6 | 98 | 4.8 | 12.9 | 0.03 | 2.49 | 1.68 | 95 | 1007.2 |
| 20260506153027 | 6 | 96 | 3.2 | 8.0 | 0.03 | 2.49 | 1.68 | 95 | 1007.5 |
| 20260506151533 | 6 | 90 | 1.6 | 8.0 | 0.03 | 2.49 | 1.68 | 95 | 1007.2 |
| 20260506150030 | 6 | 101 | 1.6 | 11.3 | 0.00 | 2.46 | 1.65 | 95 | 1007.1 |
| 20260506144521 | 6 | 38 | 3.2 | 6.4 | 0.00 | 2.46 | 1.65 | 95 | 1007.1 |
| 20260506143036 | 6 | 65 | 3.2 | 9.7 | 0.00 | 2.46 | 1.65 | 95 | 1007.0 |
| 20260506141518 | 6 | 26 | 1.6 | 6.4 | 0.03 | 2.46 | 1.65 | 95 | 1006.8 |
| 20260506140017 | 6 | 72 | 0.0 | 6.4 | 0.05 | 2.46 | 1.65 | 95 | 1006.8 |
| 20260506134545 | 6 | 74 | 3.2 | 8.0 | 0.08 | 2.46 | 1.65 | 96 | 1006.7 |
| 20260506133048 | 6 | 98 | 4.8 | 14.5 | 0.08 | 2.46 | 1.65 | 95 | 1006.7 |
| 20260506131542 | 6 | 109 | 6.4 | 14.5 | 0.08 | 2.44 | 1.63 | 96 | 1006.5 |
| 20260506130040 | 6 | 102 | 4.8 | 14.5 | 0.08 | 2.41 | 1.60 | 95 | 1006.5 |
| 20260506124537 | 6 | 101 | 8.0 | 16.1 | 0.10 | 2.39 | 1.57 | 96 | 1006.3 |
| 20260506123036 | 6 | 97 | 4.8 | 16.1 | 0.13 | 2.39 | 1.57 | 95 | 1006.3 |
| 20260506121530 | 6 | 96 | 6.4 | 19.3 | 0.13 | 2.36 | 1.55 | 95 | 1006.2 |
| 20260506120031 | 6 | 90 | 6.4 | 14.5 | 0.13 | 2.34 | 1.52 | 95 | 1006.4 |
| 20260506114538 | 6 | 95 | 8.0 | 16.1 | 0.10 | 2.29 | 1.45 | 96 | 1006.2 |
| 20260506113026 | 6 | 111 | 4.8 | 14.5 | 0.10 | 2.26 | 1.42 | 96 | 1006.5 |
| 20260506111521 | 6 | 90 | 9.7 | 16.1 | 0.10 | 2.24 | 1.42 | 96 | 1006.1 |
| 20260506110021 | 6 | 98 | 9.7 | 16.1 | 0.13 | 2.21 | 1.40 | 96 | 1006.0 |
| 20260506104516 | 6 | 110 | 6.4 | 12.9 | 0.15 | 2.18 | 1.37 | 96 | 1005.8 |
| 20260506103017 | 6 | 114 | 6.4 | 11.3 | 0.18 | 2.16 | 1.35 | 96 | 1006.1 |
| 20260506101522 | 6 | 104 | 6.4 | 14.5 | 0.23 | 2.13 | 1.32 | 95 | 1006.3 |
| 20260506100010 | 6 | 111 | 4.8 | 12.9 | 0.18 | 2.08 | 1.27 | 96 | 1006.6 |
| 20260506094515 | 6 | 101 | 1.6 | 11.3 | 0.13 | 2.01 | 1.19 | 96 | 1006.4 |
| 20260506093008 | 6 | 325 | 1.6 | 12.9 | 0.13 | 1.96 | 1.14 | 96 | 1006.6 |
| 20260506091505 | 6 | 98 | 6.4 | 12.9 | 0.10 | 1.91 | 1.09 | 96 | 1006.1 |
| 20260506090007 | 6 | 72 | 3.2 | 14.5 | 0.13 | 1.91 | 1.09 | 95 | 1006.2 |